GACFB EGEI-EGPO

Flight info

Callsign GACFB
Flight time N/A
Altitude 3000
Route 572057N0054001W/N0111F040 572050N0054545W 572126N0054955W 573409N0055707W 575024N0060804W 580554N0061832W
Aircraft C172/L-SDFG/C

Departure

Time 2026-05-04 19:16
Airport Broadford Airstrip (EGEI)

Arrival

Time N/A
Airport Stornoway Airport (EGPO)
Time Latitude Longitude Altitude Speed Heading
2026-05-04 19:07 57.25374 -5.82440 27 ft 0 kts 239°
2026-05-04 19:13 57.25387 -5.82467 27 ft 4 kts 332°
2026-05-04 19:13 57.25391 -5.82470 27 ft 0 kts 335°
2026-05-04 19:13 57.25394 -5.82476 27 ft 4 kts 298°
2026-05-04 19:14 57.25341 -5.82684 30 ft 29 kts 243°
2026-05-04 19:14 57.25272 -5.82910 32 ft 11 kts 241°
2026-05-04 19:14 57.25232 -5.83077 32 ft 11 kts 248°
2026-05-04 19:14 57.25193 -5.83219 32 ft 12 kts 240°
2026-05-04 19:15 57.25181 -5.83263 31 ft 0 kts 245°
2026-05-04 19:15 57.25165 -5.83313 30 ft 0 kts 236°
2026-05-04 19:15 57.25159 -5.83303 31 ft 2 kts 72°
2026-05-04 19:15 57.25173 -5.83261 31 ft 21 kts 56°
2026-05-04 19:16 57.25351 -5.82664 107 ft 68 kts 59°
2026-05-04 19:16 57.25596 -5.81954 369 ft 70 kts 56°
2026-05-04 19:16 57.25841 -5.81070 562 ft 86 kts 73°
2026-05-04 19:16 57.26030 -5.79937 751 ft 98 kts 69°
2026-05-04 19:17 57.26317 -5.78741 932 ft 105 kts 62°
2026-05-04 19:17 57.26320 -5.78730 933 ft 105 kts 62°
2026-05-04 19:19 57.26420 -5.78400 982 ft 106 kts 58°
2026-05-04 19:19 57.27012 -5.77646 1154 ft 108 kts 12°
2026-05-04 19:19 57.27736 -5.77895 1328 ft 109 kts 327°
2026-05-04 19:20 57.28223 -5.78968 1506 ft 110 kts 301°
2026-05-04 19:20 57.28604 -5.80201 1683 ft 110 kts 298°
2026-05-04 19:20 57.28975 -5.81430 1849 ft 111 kts 301°
2026-05-04 19:20 57.29512 -5.82553 1897 ft 120 kts 315°
2026-05-04 19:21 57.30161 -5.83510 1899 ft 122 kts 328°
2026-05-04 19:21 57.30897 -5.84322 1900 ft 122 kts 329°
2026-05-04 19:21 57.31626 -5.85105 1899 ft 122 kts 329°
2026-05-04 19:21 57.32412 -5.85664 1897 ft 121 kts 354°
2026-05-04 19:22 57.33226 -5.85986 1898 ft 122 kts 343°
2026-05-04 19:22 57.34044 -5.86096 2055 ft 116 kts 358°
2026-05-04 19:22 57.34848 -5.86109 2229 ft 114 kts 359°
2026-05-04 19:22 57.35636 -5.86127 2403 ft 113 kts 355°
2026-05-04 19:23 57.36359 -5.86592 2575 ft 112 kts 330°
2026-05-04 19:23 57.37024 -5.87328 2749 ft 111 kts 329°
2026-05-04 19:23 57.37643 -5.88188 2922 ft 111 kts 305°
2026-05-04 19:23 57.37817 -5.89584 2994 ft 118 kts 264°
2026-05-04 19:24 57.37655 -5.91124 3001 ft 123 kts 256°
2026-05-04 19:24 57.37484 -5.92675 2999 ft 124 kts 265°